, OR

(GMT )
Tillamook

Weather History for KTMK - January, 2013

Change the Weather History Date:

Tuesday, January 22, 2013

  Actual Average Record
Temperature  
Mean Temperature 44 °F -  
Max Temperature 60 °F - - ()
Min Temperature 28 °F - - ()
Degree Days  
Heating Degree Days 21    
Moisture  
Dew Point 34 °F    
Average Humidity 76    
Maximum Humidity 93    
Minimum Humidity 31    
Precipitation  
Precipitation 0.00 in - - ()
Sea Level Pressure  
Sea Level Pressure 29.99 in    
Wind  
Wind Speed 3 mph (SE)    
Max Wind Speed 7 mph    
Max Gust Speed -    
Visibility 10 miles    
Events      
Averages and records for this station are not official NWS values.
T = Trace of Precipitation, MM = Missing Value Source: NWS Daily Summary

Daily Weather History Graph

Daily Weather History Graph

Search for Another Location

Airport or City:

Trip Planner

Search our weather history database for the weather conditions in past years. The results will help you decide how hot, cold, wet, or windy it might be!

Date:

Astronomy

Jan. 22, 2013 Rise Set
Actual Time 8:45 AM MST 6:08 PM MST
Civil Twilight 8:13 AM MST 6:40 PM MST
Nautical Twilight 7:37 AM MST 7:16 PM MST
Astronomical Twilight 7:02 AM MST 7:52 PM MST
Moon 2:33 PM MST (1/22) 5:14 AM MST (1/22)
Length of Visible Light 10h 27m
Length of Day
9h 22m
Waxing Gibbous, 83% of the Moon is Illuminated
Jan 22
Waxing Gibbous
Jan 26
Full
Feb 3
Last Quarter
Feb 10
New
Feb 17
First Quarter

Hourly Weather History & Observations

Time (MST) Temp. Windchill Dew Point Humidity Pressure Visibility Wind Dir Wind Speed Gust Speed Precip Events Conditions
12:15 AM 33.8 °F 28.6 °F 30.2 °F 87% 30.10 in 10.0 mi ESE 5.8 mph - N/A   Clear
12:55 AM 30.2 °F 26.7 °F 28.4 °F 93% 30.10 in 10.0 mi SSE 3.5 mph - N/A   Clear
1:15 AM 32.0 °F 25.6 °F 30.2 °F 93% 30.11 in 10.0 mi ESE 6.9 mph - N/A   Clear
1:35 AM 35.6 °F 29.9 °F 30.2 °F 81% 30.10 in 10.0 mi ESE 6.9 mph - N/A   Clear
1:55 AM 32.0 °F - 28.4 °F 87% 30.09 in 10.0 mi Calm Calm - N/A   Clear
2:15 AM 32.0 °F 28.7 °F 28.4 °F 87% 30.08 in 10.0 mi SSE 3.5 mph - N/A   Clear
2:35 AM 32.0 °F 28.7 °F 28.4 °F 87% 30.08 in 10.0 mi SSE 3.5 mph - N/A   Clear
2:55 AM 32.0 °F 26.4 °F 30.2 °F 93% 30.08 in 10.0 mi SSE 5.8 mph - N/A   Clear
3:15 AM 30.2 °F 26.7 °F 28.4 °F 93% 30.07 in 10.0 mi SE 3.5 mph - N/A   Clear
3:35 AM 30.2 °F 25.4 °F 28.4 °F 93% 30.07 in 10.0 mi SE 4.6 mph - N/A   Clear
3:55 AM 32.0 °F 28.7 °F 30.2 °F 93% 30.07 in 10.0 mi SE 3.5 mph - N/A   Clear
4:15 AM 30.2 °F - 28.4 °F 93% 30.06 in 10.0 mi Calm Calm - N/A   Clear
4:35 AM 30.2 °F 23.4 °F 28.4 °F 93% 30.06 in 10.0 mi SE 6.9 mph - N/A   Clear
4:55 AM 30.2 °F 25.4 °F 28.4 °F 93% 30.06 in 10.0 mi SSE 4.6 mph - N/A   Clear
5:15 AM 30.2 °F 24.3 °F 28.4 °F 93% 30.05 in 10.0 mi SE 5.8 mph - N/A   Clear
5:35 AM 30.2 °F 25.4 °F 28.4 °F 93% 30.05 in 10.0 mi SSE 4.6 mph - N/A   Clear
5:55 AM 30.2 °F 26.7 °F 28.4 °F 93% 30.05 in 10.0 mi SE 3.5 mph - N/A   Clear
6:15 AM 30.2 °F - 28.4 °F 93% 30.04 in 10.0 mi Calm Calm - N/A   Clear
6:35 AM 30.2 °F - 28.4 °F 93% 30.04 in 10.0 mi Calm Calm - N/A   Clear
6:55 AM 28.4 °F 24.6 °F 26.6 °F 93% 30.03 in 10.0 mi SSE 3.5 mph - N/A   Clear
7:15 AM 30.2 °F 26.7 °F 28.4 °F 93% 30.03 in 7.0 mi SE 3.5 mph - N/A   Clear
7:35 AM 30.2 °F - 28.4 °F 93% 30.02 in 10.0 mi Calm Calm - N/A   Clear
7:55 AM 30.2 °F - 26.6 °F 86% 30.01 in 10.0 mi Calm Calm - N/A   Clear
8:15 AM 30.2 °F 25.4 °F 28.4 °F 93% 30.02 in 10.0 mi SSE 4.6 mph - N/A   Clear
8:35 AM 30.2 °F 25.4 °F 28.4 °F 93% 30.02 in 10.0 mi SSE 4.6 mph - N/A   Clear
8:55 AM 32.0 °F - 28.4 °F 87% 30.00 in 10.0 mi Calm Calm - N/A   Clear
9:15 AM 32.0 °F 26.4 °F 28.4 °F 87% 30.01 in 10.0 mi SSE 5.8 mph - N/A   Clear
9:35 AM 33.8 °F 27.7 °F 32.0 °F 93% 30.02 in 10.0 mi SE 6.9 mph - N/A   Clear
9:55 AM 33.8 °F 29.6 °F 32.0 °F 93% 30.02 in 10.0 mi SE 4.6 mph - N/A   Clear
10:15 AM 33.8 °F 30.8 °F 32.0 °F 93% 30.02 in 10.0 mi South 3.5 mph - N/A   Clear
10:35 AM 37.4 °F - 33.8 °F 87% 30.02 in 10.0 mi Calm Calm - N/A   Clear
10:55 AM 41.0 °F - 33.8 °F 76% 30.02 in 10.0 mi Calm Calm - N/A   Clear
11:15 AM 41.0 °F - 37.4 °F 87% 30.01 in 10.0 mi Calm Calm - N/A   Clear
11:35 AM 42.8 °F - 37.4 °F 81% 30.02 in 10.0 mi Calm Calm - N/A   Clear
11:55 AM 44.6 °F - 35.6 °F 71% 30.02 in 7.0 mi Calm Calm - N/A   Clear
12:15 PM 46.4 °F - 37.4 °F 71% 30.01 in 10.0 mi Calm Calm - N/A   Clear
12:35 PM 46.4 °F - 39.2 °F 76% 30.00 in 10.0 mi Calm Calm - N/A   Clear
12:55 PM 48.2 °F - 37.4 °F 66% 29.99 in 10.0 mi Calm Calm - N/A   Clear
1:15 PM 50.0 °F - 39.2 °F 66% 29.98 in 10.0 mi Calm Calm - N/A   Clear
1:35 PM 51.8 °F - 41.0 °F 67% 29.97 in 10.0 mi Calm Calm - N/A   Clear
1:55 PM 51.8 °F - 41.0 °F 67% 29.97 in 10.0 mi Calm Calm - N/A   Clear
2:15 PM 53.6 °F - 39.2 °F 58% 29.95 in 10.0 mi Calm Calm - N/A   Clear
2:35 PM 53.6 °F - 37.4 °F 54% 29.95 in 10.0 mi Calm Calm - N/A   Clear
2:55 PM 57.2 °F - 35.6 °F 44% 29.94 in 10.0 mi Calm Calm - N/A   Clear
3:15 PM 57.2 °F - 35.6 °F 44% 29.93 in 10.0 mi Calm Calm - N/A   Clear
3:35 PM 59.0 °F - 35.6 °F 42% 29.93 in 10.0 mi Calm Calm - N/A   Clear
3:55 PM 60.8 °F - 30.2 °F 31% 29.93 in 10.0 mi Calm Calm - N/A   Clear
4:15 PM 60.8 °F - 32.0 °F 34% 29.93 in 10.0 mi Calm Calm - N/A   Clear
4:35 PM 59.0 °F - 35.6 °F 42% 29.92 in 10.0 mi Calm Calm - N/A   Clear
4:55 PM 57.2 °F - 37.4 °F 48% 29.92 in 10.0 mi Calm Calm - N/A   Clear
5:15 PM 55.4 °F - 39.2 °F 54% 29.92 in 10.0 mi Calm Calm - N/A   Clear
5:35 PM 53.6 °F - 39.2 °F 58% 29.91 in 10.0 mi Calm Calm - N/A   Clear
5:55 PM 51.8 °F - 41.0 °F 67% 29.91 in 7.0 mi Calm Calm - N/A   Clear
6:15 PM 50.0 °F - 41.0 °F 71% 29.91 in 10.0 mi Calm Calm - N/A   Clear
6:35 PM 48.2 °F - 41.0 °F 76% 29.91 in 10.0 mi SSW 4.6 mph - N/A   Clear
6:55 PM 48.2 °F - 39.2 °F 71% 29.91 in 10.0 mi Calm Calm - N/A   Clear
7:15 PM 48.2 °F - 37.4 °F 66% 29.91 in 10.0 mi Calm Calm - N/A   Clear
7:35 PM 46.4 °F - 39.2 °F 76% 29.91 in 10.0 mi Calm Calm - N/A   Clear
7:55 PM 44.6 °F - 39.2 °F 81% 29.91 in 10.0 mi Calm Calm - N/A   Clear
8:15 PM 46.4 °F - 39.2 °F 76% 29.91 in 10.0 mi Calm Calm - N/A   Clear
8:35 PM 44.6 °F 43.1 °F 39.2 °F 81% 29.91 in 10.0 mi SE 3.5 mph - N/A   Clear
8:55 PM 46.4 °F 43.5 °F 37.4 °F 71% 29.91 in 10.0 mi ESE 5.8 mph - N/A   Clear
9:15 PM 46.4 °F 45.2 °F 37.4 °F 71% 29.91 in 10.0 mi SE 3.5 mph - N/A   Clear
9:35 PM 46.4 °F 44.3 °F 35.6 °F 66% 29.90 in 10.0 mi SE 4.6 mph - N/A   Clear
9:55 PM 46.4 °F 42.9 °F 35.6 °F 66% 29.91 in 10.0 mi ESE 6.9 mph - N/A   Clear
10:15 PM 46.4 °F 42.9 °F 35.6 °F 66% 29.91 in 10.0 mi ESE 6.9 mph - N/A   Clear
10:35 PM 46.4 °F 45.2 °F 33.8 °F 62% 29.91 in 10.0 mi SE 3.5 mph - N/A   Clear
10:55 PM 46.4 °F - 35.6 °F 66% 29.92 in 10.0 mi Calm Calm - N/A   Clear
11:15 PM 44.6 °F - 37.4 °F 76% 29.91 in 10.0 mi Calm Calm - N/A   Clear
11:35 PM 44.6 °F 42.2 °F 37.4 °F 76% 29.91 in 10.0 mi SE 4.6 mph - N/A   Clear
11:55 PM 44.6 °F 43.1 °F 37.4 °F 76% 29.92 in 10.0 mi South 3.5 mph - N/A   Clear